Location: Chavannes
(47.1090°N, 0.2226°W)
Time: 13:23:57
(UTC+00:00)

CSL-04 Rocket - Pass Details

Date: 16 October 2021
Orbit: 805 x 860 km, 98.9° (Epoch: 02 December)

Event Time Altitude Azimuth Distance (km) Brightness Sun altitude
Exits shadow 19:30:13 27° 171° (S) 1,577 4.9 -24.3°
Maximum altitude 19:33:21 80° 256° (WSW) 874 3.7 -24.8°
Drops below altitude 10° 19:38:56 10° 343° (NNW) 2,507 6.5 -25.7°
Sets 19:41:20 0° 345° (NNW) 3,450 7.3 -26.1°
